Location: Austin
(30.3000°N, 97.7500°W)
Time: 12:43:44
(UTC-05:00)

USA 229 - Pass Details

Date: 05 September 2024
Orbit: 890 x 1322 km, 63.4° (Epoch: 31 August)

Event Time Altitude Azimuth Distance (km) Brightness Sun altitude
Rises 21:56:35 0° 334° (NNW) 4,080 7.5 -27.3°
Reaches altitude 10° 21:59:18 10° 338° (NNW) 3,168 6.7 -27.8°
Maximum altitude 22:06:59 64° 59° (ENE) 1,409 4.0 -29.3°
Enters shadow 22:07:40 61° 83° (E) 1,436 4.0 -29.4°
